,,Stat6,,Stat2,,Stat8,,Stat9,,Stat10,,Wind1,,Wind1,
time,status,PA1M_AVG,status,PR1M_SUM,status,RH1M_AVG,status,SR1M_AVG,status,TA1M_AVG,status,W1dAve1m,status,W1sAve1m,
2006-01-24, 00:00:00,VALID,917.347,VALID,0,VALID,100,VALID,0.118866,VALID,19.5221,VALID,22,VALID,0.612165,
2006-01-24, 00:01:00,VALID,917.351,VALID,0,VALID,100,VALID,0.152827,VALID,19.5194,VALID,22,VALID,0.556504,
2006-01-24, 00:02:00,VALID,917.337,VALID,0,VALID,100,VALID,0.135847,VALID,19.4933,VALID,20,VALID,0.468205,
2006-01-24, 00:03:00,VALID,917.33,VALID,0,VALID,100,VALID,0.118866,VALID,19.4838,VALID,349,VALID,0.491071,
2006-01-24, 00:04:00,VALID,917.315,VALID,0,VALID,100,VALID,0.152827,VALID,19.4873,VALID,339,VALID,0.375953,
2006-01-24, 00:05:00,VALID,917.31,VALID,0,VALID,100,VALID,0.118866,VALID,19.4776,VALID,344,VALID,0.493075,
2006-01-24, 00:06:00,VALID,917.297,VALID,0,VALID,100,VALID,0.135847,VALID,19.4833,VALID,346,VALID,0.27096,
2006-01-24, 00:07:00,VALID,917.295,VALID,0,VALID,100,VALID,0.152827,VALID,19.4905,VALID,347,VALID,0.364583,
2006-01-24, 00:08:00,VALID,917.284,VALID,0,VALID,100,VALID,0.169808,VALID,19.4908,VALID,346,VALID,0.560724,
2006-01-24, 00:09:00,VALID,917.276,VALID,0,VALID,100,VALID,0.152827,VALID,19.4866,VALID,360,VALID,0.669271,
2006-01-24, 00:10:00,VALID,917.27,VALID,0,VALID,100,VALID,0.169808,VALID,19.4943,VALID,3,VALID,0.596418,
2006-01-24, 00:11:00,VALID,917.254,VALID,0,VALID,100,VALID,0.135847,VALID,19.4838,VALID,358,VALID,0.65904,
2006-01-24, 00:12:00,VALID,917.259,VALID,0,VALID,100,VALID,0.152827,VALID,19.4744,VALID,331,VALID,0.540625,
2006-01-24, 00:13:00,VALID,917.252,VALID,0,VALID,100,VALID,0.118866,VALID,19.4577,VALID,309,VALID,0.482887,
2006-01-24, 00:14:00,VALID,917.244,VALID,0,VALID,100,VALID,0.135847,VALID,19.4552,VALID,310,VALID,0.29306,
2006-01-24, 00:15:00,VALID,917.247,VALID,0,VALID,100,VALID,0.186789,VALID,19.4485,VALID,323,VALID,0.214748,
2006-01-24, 00:16:00,VALID,917.249,VALID,0,VALID,100,VALID,0.152827,VALID,19.4388,VALID,323,VALID,0.0488281,
2006-01-24, 00:17:00,VALID,917.246,VALID,0,VALID,100,VALID,0.152827,VALID,19.4386,VALID,323,VALID,0,
2006-01-24, 00:18:00,VALID,917.234,VALID,0,VALID,100,VALID,0.118866,VALID,19.4284,VALID,323,VALID,0.040625,
2006-01-24, 00:19:00,VALID,917.222,VALID,0,VALID,100,VALID,0.135847,VALID,19.4391,VALID,324,VALID,0.141992,
2006-01-24, 00:20:00,VALID,917.212,VALID,0,VALID,100,VALID,0.118866,VALID,19.458,VALID,324,VALID,0.056108,
2006-01-24, 00:21:00,VALID,917.205,VALID,0,VALID,100,VALID,0.0339617,VALID,19.4756,VALID,324,VALID,0.0218023,
2006-01-24, 00:22:00,VALID,917.195,VALID,0,VALID,100,VALID,0.0169808,VALID,19.5012,VALID,328,VALID,0.0356889,
2006-01-24, 00:23:00,VALID,917.17,VALID,0,VALID,100,VALID,0.0509425,VALID,19.4888,VALID,39,VALID,0.509415,
2006-01-24, 00:24:00,VALID,917.154,VALID,0,VALID,100,VALID,0,VALID,19.4763,VALID,84,VALID,0.379439,
2006-01-24, 00:25:00,VALID,917.12,VALID,0,VALID,100,VALID,0.0679233,VALID,19.4535,VALID,77,VALID,0.494496,
2006-01-24, 00:26:00,VALID,917.105,VALID,0,VALID,100,VALID,-0.0169808,VALID,19.443,VALID,66,VALID,0.533854,
2006-01-24, 00:27:00,VALID,917.082,VALID,0,VALID,100,VALID,0.0169808,VALID,19.44,VALID,58,VALID,0.377257,
2006-01-24, 00:28:00,VALID,917.075,VALID,0,VALID,100,VALID,0.0169808,VALID,19.4271,VALID,56,VALID,0.210582,
2006-01-24, 00:29:00,VALID,917.051,VALID,0,VALID,100,VALID,0.0169808,VALID,19.4174,VALID,47,VALID,0.586301,
2006-01-24, 00:30:00,VALID,917.033,VALID,0,VALID,100,VALID,0.0849042,VALID,19.395,VALID,25,VALID,0.954799,
2006-01-24, 00:31:00,VALID,917.031,VALID,0,VALID,100,VALID,0.0339617,VALID,19.3756,VALID,27,VALID,0.816501,
2006-01-24, 00:32:00,VALID,917.023,VALID,0,VALID,100,VALID,0.0339617,VALID,19.3784,VALID,22,VALID,0.419567,
2006-01-24, 00:33:00,VALID,917.018,VALID,0,VALID,100,VALID,0.0679233,VALID,19.395,VALID,351,VALID,0.671875,
2006-01-24, 00:34:00,VALID,917.006,VALID,0,VALID,100,VALID,0.0339617,VALID,19.3488,VALID,360,VALID,0.612424,
2006-01-24, 00:35:00,VALID,917.01,VALID,0,VALID,100,VALID,0.0339617,VALID,19.3555,VALID,358,VALID,0.576601,
2006-01-24, 00:36:00,VALID,917.009,VALID,0,VALID,100,VALID,0.0679233,VALID,19.3585,VALID,358,VALID,0.523996,
2006-01-24, 00:37:00,VALID,917.006,VALID,0,VALID,100,VALID,0.0679233,VALID,19.3689,VALID,348,VALID,0.873698,
2006-01-24, 00:38:00,VALID,916.999,VALID,0,VALID,100,VALID,0.0679233,VALID,19.3555,VALID,346,VALID,0.56593,
2006-01-24, 00:39:00,VALID,916.994,VALID,0,VALID,100,VALID,0.0849042,VALID,19.3652,VALID,11,VALID,0.349276,
2006-01-24, 00:40:00,VALID,917.012,VALID,0,VALID,100,VALID,0.0679233,VALID,19.3848,VALID,11,VALID,0.0634301,
2006-01-24, 00:41:00,VALID,917.009,VALID,0,VALID,100,VALID,0.0339617,VALID,19.3911,VALID,11,VALID,0,
2006-01-24, 00:42:00,VALID,917.015,VALID,0,VALID,100,VALID,0.0849042,VALID,19.3908,VALID,10,VALID,0.00117188,
2006-01-24, 00:43:00,VALID,916.991,VALID,0,VALID,100,VALID,0.0679233,VALID,19.4104,VALID,347,VALID,0.349609,
2006-01-24, 00:44:00,VALID,916.977,VALID,0,VALID,100,VALID,0.0849042,VALID,19.3876,VALID,314,VALID,0.308061,
2006-01-24, 00:45:00,VALID,916.963,VALID,0,VALID,100,VALID,0.0849042,VALID,19.3749,VALID,308,VALID,0.0448765,
2006-01-24, 00:46:00,VALID,916.952,VALID,0,VALID,100,VALID,0.0509425,VALID,19.3843,VALID,308,VALID,0.00111607,
2006-01-24, 00:47:00,VALID,916.946,VALID,0,VALID,100,VALID,0.0679233,VALID,19.4012,VALID,308,VALID,0,
2006-01-24, 00:48:00,VALID,916.939,VALID,0,VALID,100,VALID,0.0339617,VALID,19.3943,VALID,308,VALID,0,
2006-01-24, 00:49:00,VALID,916.948,VALID,0,VALID,100,VALID,0.0509425,VALID,19.4047,VALID,308,VALID,0.122768,
2006-01-24, 00:50:00,VALID,916.925,VALID,0,VALID,100,VALID,0.0339617,VALID,19.3978,VALID,308,VALID,0.0310802,
2006-01-24, 00:51:00,VALID,916.902,VALID,0,VALID,100,VALID,0.135847,VALID,19.4065,VALID,308,VALID,0,
2006-01-24, 00:52:00,VALID,916.886,VALID,0,VALID,100,VALID,0.186789,VALID,19.4055,VALID,308,VALID,0.0576172,
2006-01-24, 00:53:00,VALID,916.877,VALID,0,VALID,100,VALID,0.186789,VALID,19.4513,VALID,308,VALID,0,
2006-01-24, 00:54:00,VALID,916.866,VALID,0,VALID,100,VALID,0.20377,VALID,19.4769,VALID,308,VALID,0,
2006-01-24, 00:55:00,VALID,916.859,VALID,0,VALID,100,VALID,0.186789,VALID,19.4995,VALID,308,VALID,0,
2006-01-24, 00:56:00,VALID,916.836,VALID,0,VALID,100,VALID,0.169808,VALID,19.4863,VALID,308,VALID,0.0127841,
2006-01-24, 00:57:00,VALID,916.825,VALID,0,VALID,100,VALID,0.152827,VALID,19.4669,VALID,308,VALID,0.00130208,
2006-01-24, 00:58:00,VALID,916.809,VALID,0,VALID,100,VALID,0.186789,VALID,19.4445,VALID,308,VALID,0,
2006-01-24, 00:59:00,VALID,916.8,VALID,0,VALID,100,VALID,0.186789,VALID,19.4152,VALID,308,VALID,0,
2006-01-24, 01:00:00,VALID,916.812,VALID,0,VALID,100,VALID,0.186789,VALID,19.3993,VALID,308,VALID,0,
2006-01-24, 01:01:00,VALID,916.786,VALID,0,VALID,100,VALID,0.169808,VALID,19.3926,VALID,308,VALID,0,
2006-01-24, 01:02:00,VALID,916.768,VALID,0,VALID,100,VALID,0.186789,VALID,19.3896,VALID,308,VALID,0,
2006-01-24, 01:03:00,VALID,916.755,VALID,0,VALID,100,VALID,0.169808,VALID,19.3901,VALID,308,VALID,0,
2006-01-24, 01:04:00,VALID,916.738,VALID,0,VALID,100,VALID,0.186789,VALID,19.3702,VALID,308,VALID,0,
2006-01-24, 01:05:00,VALID,916.72,VALID,0,VALID,100,VALID,0.186789,VALID,19.3637,VALID,308,VALID,0,
2006-01-24, 01:06:00,VALID,916.707,VALID,0,VALID,100,VALID,0.101885,VALID,19.3582,VALID,308,VALID,0,
2006-01-24, 01:07:00,VALID,916.689,VALID,0,VALID,100,VALID,0.0849042,VALID,19.3684,VALID,308,VALID,0,
2006-01-24, 01:08:00,VALID,916.68,VALID,0,VALID,100,VALID,0.0679233,VALID,19.3592,VALID,308,VALID,0,
2006-01-24, 01:09:00,VALID,916.678,VALID,0,VALID,100,VALID,0.0679233,VALID,19.3485,VALID,308,VALID,0,
2006-01-24, 01:10:00,VALID,916.654,VALID,0,VALID,100,VALID,0.101885,VALID,19.3363,VALID,308,VALID,0,
2006-01-24, 01:11:00,VALID,916.631,VALID,0,VALID,100,VALID,0.0509425,VALID,19.3329,VALID,308,VALID,0,
2006-01-24, 01:12:00,VALID,916.614,VALID,0,VALID,100,VALID,0.0679233,VALID,19.3331,VALID,308,VALID,0,
2006-01-24, 01:13:00,VALID,916.592,VALID,0,VALID,100,VALID,0.0339617,VALID,19.3232,VALID,308,VALID,0,
2006-01-24, 01:14:00,VALID,916.572,VALID,0,VALID,100,VALID,0.0509425,VALID,19.3072,VALID,308,VALID,0,
2006-01-24, 01:15:00,VALID,916.569,VALID,0,VALID,100,VALID,0.0849042,VALID,19.3167,VALID,342,VALID,0.310865,
2006-01-24, 01:16:00,VALID,916.551,VALID,0,VALID,100,VALID,0.0509425,VALID,19.2911,VALID,36,VALID,0.46875,
2006-01-24, 01:17:00,VALID,916.536,VALID,0,VALID,100,VALID,0.0679233,VALID,19.2781,VALID,34,VALID,0.399479,
2006-01-24, 01:18:00,VALID,916.522,VALID,0,VALID,100,VALID,0.0509425,VALID,19.2486,VALID,15,VALID,0.545967,
2006-01-24, 01:19:00,VALID,916.517,VALID,0,VALID,100,VALID,0.0679233,VALID,19.2324,VALID,27,VALID,0.521439,
2006-01-24, 01:20:00,VALID,916.516,VALID,0,VALID,100,VALID,0.0679233,VALID,19.2264,VALID,27,VALID,0.408918,
2006-01-24, 01:21:00,VALID,916.498,VALID,0,VALID,100,VALID,0.0679233,VALID,19.2488,VALID,27,VALID,0.246094,
2006-01-24, 01:22:00,VALID,916.487,VALID,0,VALID,100,VALID,0.0679233,VALID,19.2364,VALID,27,VALID,0.0381747,
2006-01-24, 01:23:00,VALID,916.471,VALID,0,VALID,100,VALID,0.101885,VALID,19.2488,VALID,27,VALID,0.053234,
2006-01-24, 01:24:00,VALID,916.48,VALID,0,VALID,100,VALID,0.0339617,VALID,19.2687,VALID,27,VALID,0,
2006-01-24, 01:25:00,VALID,916.483,VALID,0,VALID,100,VALID,0.0849042,VALID,19.2587,VALID,27,VALID,0,
2006-01-24, 01:26:00,VALID,916.482,VALID,0,VALID,100,VALID,0.0509425,VALID,19.2528,VALID,27,VALID,0,
2006-01-24, 01:27:00,VALID,916.468,VALID,0,VALID,100,VALID,0.0849042,VALID,19.2396,VALID,27,VALID,0,
2006-01-24, 01:28:00,VALID,916.462,VALID,0,VALID,100,VALID,0.0679233,VALID,19.2267,VALID,27,VALID,0,
2006-01-24, 01:29:00,VALID,916.47,VALID,0,VALID,100,VALID,0.0339617,VALID,19.2204,VALID,27,VALID,0,
2006-01-24, 01:30:00,VALID,916.467,VALID,0,VALID,100,VALID,0.0679233,VALID,19.2207,VALID,27,VALID,0,
2006-01-24, 01:31:00,VALID,916.469,VALID,0,VALID,100,VALID,0.0509425,VALID,19.2043,VALID,27,VALID,0,
2006-01-24, 01:32:00,VALID,916.45,VALID,0,VALID,100,VALID,0.0339617,VALID,19.1879,VALID,27,VALID,0,
2006-01-24, 01:33:00,VALID,916.441,VALID,0,VALID,100,VALID,0.0679233,VALID,19.1846,VALID,27,VALID,0,
2006-01-24, 01:34:00,VALID,916.444,VALID,0,VALID,100,VALID,0.0679233,VALID,19.1779,VALID,27,VALID,0,
2006-01-24, 01:35:00,VALID,916.453,VALID,0,VALID,100,VALID,0.0679233,VALID,19.1516,VALID,27,VALID,0,
2006-01-24, 01:36:00,VALID,916.439,VALID,0,VALID,100,VALID,0.0849042,VALID,19.1133,VALID,34,VALID,0.311257,
2006-01-24, 01:37:00,VALID,916.443,VALID,0,VALID,100,VALID,0.135847,VALID,19.0936,VALID,40,VALID,0.315589,
2006-01-24, 01:38:00,VALID,916.438,VALID,0,VALID,100,VALID,0.101885,VALID,19.0973,VALID,40,VALID,0.00228659,
2006-01-24, 01:39:00,VALID,916.436,VALID,0,VALID,100,VALID,0.101885,VALID,19.1003,VALID,40,VALID,0.000363372,
2006-01-24, 01:40:00,VALID,916.428,VALID,0,VALID,100,VALID,0.0679233,VALID,19.0712,VALID,40,VALID,0.251635,
2006-01-24, 01:41:00,VALID,916.422,VALID,0,VALID,100,VALID,0.101885,VALID,19.0581,VALID,40,VALID,0.279535,
2006-01-24, 01:42:00,VALID,916.415,VALID,0,VALID,100,VALID,0.101885,VALID,19.0223,VALID,40,VALID,0.339367,
2006-01-24, 01:43:00,VALID,916.411,VALID,0,VALID,100,VALID,0.152827,VALID,19.0193,VALID,40,VALID,0.351563,
2006-01-24, 01:44:00,VALID,916.403,VALID,0,VALID,100,VALID,0.0849042,VALID,19.0163,VALID,40,VALID,0.420603,
2006-01-24, 01:45:00,VALID,916.397,VALID,0,VALID,100,VALID,0.118866,VALID,19.0165,VALID,43,VALID,0.184103,
2006-01-24, 01:46:00,VALID,916.378,VALID,0,VALID,100,VALID,0.0849042,VALID,19.0098,VALID,45,VALID,0.132241,
2006-01-24, 01:47:00,VALID,916.371,VALID,0,VALID,100,VALID,0.0679233,VALID,19.0034,VALID,78,VALID,0.370427,
2006-01-24, 01:48:00,VALID,916.367,VALID,0,VALID,100,VALID,0.101885,VALID,19.0193,VALID,105,VALID,0.387277,
2006-01-24, 01:49:00,VALID,916.357,VALID,0,VALID,100,VALID,0.118866,VALID,19.0322,VALID,115,VALID,0.244727,
2006-01-24, 01:50:00,VALID,916.359,VALID,0,VALID,100,VALID,0.118866,VALID,19.0514,VALID,115,VALID,0.0461648,
2006-01-24, 01:51:00,VALID,916.356,VALID,0,VALID,100,VALID,0.0679233,VALID,19.0782,VALID,115,VALID,0,
2006-01-24, 01:52:00,VALID,916.333,VALID,0,VALID,100,VALID,0.0849042,VALID,19.0747,VALID,115,VALID,0,
2006-01-24, 01:53:00,VALID,916.321,VALID,0,VALID,100,VALID,0.101885,VALID,19.0844,VALID,115,VALID,0,
2006-01-24, 01:54:00,VALID,916.306,VALID,0,VALID,100,VALID,0.0849042,VALID,19.0844,VALID,115,VALID,0,
2006-01-24, 01:55:00,VALID,916.283,VALID,0,VALID,100,VALID,0.0509425,VALID,19.0812,VALID,115,VALID,0,
2006-01-24, 01:56:00,VALID,916.279,VALID,0,VALID,100,VALID,0.0849042,VALID,19.0966,VALID,115,VALID,0.0591518,
2006-01-24, 01:57:00,VALID,916.258,VALID,0,VALID,100,VALID,0.0679233,VALID,19.0909,VALID,115,VALID,0.180259,
2006-01-24, 01:58:00,VALID,916.271,VALID,0,VALID,100,VALID,0.118866,VALID,19.0817,VALID,115,VALID,0,
2006-01-24, 01:59:00,VALID,916.257,VALID,0,VALID,100,VALID,0.118866,VALID,19.065,VALID,115,VALID,0,
2006-01-24, 02:00:00,VALID,916.249,VALID,0,VALID,100,VALID,0.0679233,VALID,19.068,VALID,115,VALID,0,
2006-01-24, 02:01:00,VALID,916.253,VALID,0,VALID,100,VALID,0.0509425,VALID,19.0844,VALID,115,VALID,0,
2006-01-24, 02:02:00,VALID,916.244,VALID,0,VALID,100,VALID,0.0849042,VALID,19.0782,VALID,115,VALID,0,
2006-01-24, 02:03:00,VALID,916.229,VALID,0,VALID,100,VALID,0.0679233,VALID,19.0683,VALID,115,VALID,0,
2006-01-24, 02:04:00,VALID,916.223,VALID,0,VALID,100,VALID,0.0679233,VALID,19.0747,VALID,115,VALID,0,
2006-01-24, 02:05:00,VALID,916.207,VALID,0,VALID,100,VALID,0.0509425,VALID,19.1006,VALID,115,VALID,0.0732195,
2006-01-24, 02:06:00,VALID,916.206,VALID,0,VALID,100,VALID,0.0509425,VALID,19.1297,VALID,115,VALID,0.289789,
2006-01-24, 02:07:00,VALID,916.21,VALID,0,VALID,100,VALID,0.0509425,VALID,19.159,VALID,115,VALID,0.168713,
2006-01-24, 02:08:00,VALID,916.19,VALID,0,VALID,100,VALID,0.0849042,VALID,19.1779,VALID,115,VALID,0,
2006-01-24, 02:09:00,VALID,916.183,VALID,0,VALID,100,VALID,0.118866,VALID,19.1809,VALID,115,VALID,0,
2006-01-24, 02:10:00,VALID,916.181,VALID,0,VALID,100,VALID,0.0849042,VALID,19.2107,VALID,115,VALID,0,
2006-01-24, 02:11:00,VALID,916.166,VALID,0,VALID,100,VALID,0.118866,VALID,19.2006,VALID,115,VALID,0,
2006-01-24, 02:12:00,VALID,916.146,VALID,0,VALID,100,VALID,0.118866,VALID,19.1618,VALID,115,VALID,0.159226,
2006-01-24, 02:13:00,VALID,916.122,VALID,0,VALID,100,VALID,0.135847,VALID,19.1396,VALID,115,VALID,0.32168,
2006-01-24, 02:14:00,VALID,916.116,VALID,0,VALID,100,VALID,0.0849042,VALID,19.107,VALID,115,VALID,0.0614984,
2006-01-24, 02:15:00,VALID,916.097,VALID,0,VALID,100,VALID,0.101885,VALID,19.107,VALID,115,VALID,0,
2006-01-24, 02:16:00,VALID,916.094,VALID,0,VALID,100,VALID,0.101885,VALID,19.107,VALID,115,VALID,0.00093006,
2006-01-24, 02:17:00,VALID,916.088,VALID,0,VALID,100,VALID,0.0849042,VALID,19.1138,VALID,115,VALID,0,
2006-01-24, 02:18:00,VALID,916.093,VALID,0,VALID,100,VALID,0.0849042,VALID,19.1332,VALID,115,VALID,0.0372024,
2006-01-24, 02:19:00,VALID,916.073,VALID,0,VALID,100,VALID,0.135847,VALID,19.1264,VALID,116,VALID,0.381288,
2006-01-24, 02:20:00,VALID,916.058,VALID,0,VALID,100,VALID,0.0849042,VALID,19.1068,VALID,231,VALID,0.457114,
2006-01-24, 02:21:00,VALID,916.054,VALID,0,VALID,100,VALID,0.101885,VALID,19.1103,VALID,233,VALID,0.399926,
2006-01-24, 02:22:00,VALID,916.037,VALID,0,VALID,100,VALID,0.152827,VALID,19.0971,VALID,233,VALID,0.457812,
2006-01-24, 02:23:00,VALID,916.027,VALID,0,VALID,100,VALID,0.118866,VALID,19.0939,VALID,229,VALID,0.358259,
2006-01-24, 02:24:00,VALID,916.018,VALID,0,VALID,100,VALID,0.118866,VALID,19.0869,VALID,224,VALID,0.128162,
2006-01-24, 02:25:00,VALID,916.006,VALID,0,VALID,100,VALID,0.0849042,VALID,19.1001,VALID,224,VALID,0.114183,
2006-01-24, 02:26:00,VALID,915.987,VALID,0,VALID,100,VALID,0.101885,VALID,19.1172,VALID,224,VALID,0.223899,
2006-01-24, 02:27:00,VALID,915.989,VALID,0,VALID,100,VALID,0.101885,VALID,19.1167,VALID,220,VALID,0.452363,
2006-01-24, 02:28:00,VALID,915.985,VALID,0,VALID,100,VALID,0.0849042,VALID,19.12,VALID,220,VALID,0.206364,
2006-01-24, 02:29:00,VALID,915.974,VALID,0,VALID,100,VALID,0.135847,VALID,19.1135,VALID,220,VALID,0.366787,
2006-01-24, 02:30:00,VALID,915.975,VALID,0,VALID,100,VALID,0.101885,VALID,19.1105,VALID,220,VALID,0.155717,
2006-01-24, 02:31:00,VALID,915.961,VALID,0,VALID,100,VALID,0.0849042,VALID,19.1108,VALID,220,VALID,0,
2006-01-24, 02:32:00,VALID,915.96,VALID,0,VALID,100,VALID,0.101885,VALID,19.113,VALID,220,VALID,0.000372024,
2006-01-24, 02:33:00,VALID,915.972,VALID,0,VALID,100,VALID,0.101885,VALID,19.1262,VALID,220,VALID,0.371003,
2006-01-24, 02:34:00,VALID,915.972,VALID,0,VALID,100,VALID,0.118866,VALID,19.1294,VALID,220,VALID,0.180859,
2006-01-24, 02:35:00,VALID,915.971,VALID,0,VALID,100,VALID,0.0849042,VALID,19.1391,VALID,218,VALID,0.277253,
2006-01-24, 02:36:00,VALID,915.956,VALID,0,VALID,100,VALID,0.0849042,VALID,19.1332,VALID,205,VALID,0.139137,
2006-01-24, 02:37:00,VALID,915.943,VALID,0,VALID,100,VALID,0.0849042,VALID,19.1528,VALID,185,VALID,0.0963542,
2006-01-24, 02:38:00,VALID,915.941,VALID,0,VALID,100,VALID,0.0849042,VALID,19.159,VALID,185,VALID,0,
2006-01-24, 02:39:00,VALID,915.924,VALID,0,VALID,100,VALID,0.0849042,VALID,19.1558,VALID,185,VALID,0,
2006-01-24, 02:40:00,VALID,915.915,VALID,0,VALID,100,VALID,0.0849042,VALID,19.1399,VALID,185,VALID,0,
2006-01-24, 02:41:00,VALID,915.899,VALID,0,VALID,100,VALID,0.0679233,VALID,19.1364,VALID,185,VALID,0,
2006-01-24, 02:42:00,VALID,915.884,VALID,0,VALID,100,VALID,0.0849042,VALID,19.1269,VALID,185,VALID,0,
2006-01-24, 02:43:00,VALID,915.88,VALID,0,VALID,100,VALID,0.0509425,VALID,19.1302,VALID,181,VALID,0.276526,
2006-01-24, 02:44:00,VALID,915.868,VALID,0,VALID,100,VALID,0.118866,VALID,19.1327,VALID,61,VALID,0.606055,
2006-01-24, 02:45:00,VALID,915.85,VALID,0,VALID,100,VALID,0.101885,VALID,19.1361,VALID,54,VALID,0.798177,
2006-01-24, 02:46:00,VALID,915.848,VALID,0,VALID,100,VALID,0.0849042,VALID,19.1461,VALID,51,VALID,0.752778,
2006-01-24, 02:47:00,VALID,915.857,VALID,0,VALID,100,VALID,0.101885,VALID,19.1625,VALID,48,VALID,0.475991,
2006-01-24, 02:48:00,VALID,915.852,VALID,0,VALID,100,VALID,0.101885,VALID,19.1523,VALID,49,VALID,0.419695,
2006-01-24, 02:49:00,VALID,915.855,VALID,0,VALID,100,VALID,0.118866,VALID,19.1324,VALID,49,VALID,0.207237,
2006-01-24, 02:50:00,VALID,915.861,VALID,0,VALID,100,VALID,0.118866,VALID,19.1396,VALID,45,VALID,0.414418,
2006-01-24, 02:51:00,VALID,915.867,VALID,0,VALID,100,VALID,0.186789,VALID,19.1511,VALID,34,VALID,0.537364,
2006-01-24, 02:52:00,VALID,915.87,VALID,0,VALID,100,VALID,0.186789,VALID,19.164,VALID,35,VALID,0.468932,
2006-01-24, 02:53:00,VALID,915.864,VALID,0,VALID,100,VALID,0.20377,VALID,19.17,VALID,25,VALID,0.633507,
2006-01-24, 02:54:00,VALID,915.859,VALID,0,VALID,100,VALID,0.186789,VALID,19.1442,VALID,39,VALID,1.02514,
2006-01-24, 02:55:00,VALID,915.853,VALID,0,VALID,100,VALID,0.169808,VALID,19.1218,VALID,42,VALID,0.774479,
2006-01-24, 02:56:00,VALID,915.844,VALID,0,VALID,100,VALID,0.220751,VALID,19.1257,VALID,53,VALID,0.508903,
2006-01-24, 02:57:00,VALID,915.839,VALID,0,VALID,100,VALID,0.186789,VALID,19.1155,VALID,54,VALID,0.149479,
2006-01-24, 02:58:00,VALID,915.826,VALID,0,VALID,100,VALID,0.152827,VALID,19.0894,VALID,54,VALID,0.312863,
2006-01-24, 02:59:00,VALID,915.815,VALID,0,VALID,100,VALID,0.186789,VALID,19.0867,VALID,54,VALID,0.278472,
2006-01-24, 03:00:00,VALID,915.81,VALID,0,VALID,100,VALID,0.169808,VALID,19.0991,VALID,54,VALID,0.22247,
2006-01-24, 03:01:00,VALID,915.807,VALID,0,VALID,100,VALID,0.169808,VALID,19.1093,VALID,54,VALID,0.289063,
2006-01-24, 03:02:00,VALID,915.816,VALID,0,VALID,100,VALID,0.186789,VALID,19.1093,VALID,54,VALID,0.332667,
2006-01-24, 03:03:00,VALID,915.813,VALID,0,VALID,100,VALID,0.169808,VALID,19.1352,VALID,54,VALID,0.502725,
2006-01-24, 03:04:00,VALID,915.807,VALID,0,VALID,100,VALID,0.186789,VALID,19.1218,VALID,57,VALID,0.637962,
2006-01-24, 03:05:00,VALID,915.809,VALID,0,VALID,100,VALID,0.169808,VALID,19.1257,VALID,77,VALID,0.599414,
2006-01-24, 03:06:00,VALID,915.807,VALID,0,VALID,100,VALID,0.20377,VALID,19.1058,VALID,95,VALID,0.644436,
2006-01-24, 03:07:00,VALID,915.79,VALID,0,VALID,100,VALID,0.135847,VALID,19.0966,VALID,104,VALID,0.639509,
2006-01-24, 03:08:00,VALID,915.779,VALID,0,VALID,100,VALID,0.20377,VALID,19.0904,VALID,100,VALID,0.754542,
2006-01-24, 03:09:00,VALID,915.775,VALID,0,VALID,100,VALID,0.169808,VALID,19.0703,VALID,77,VALID,0.989648,
2006-01-24, 03:10:00,VALID,915.776,VALID,0,VALID,100,VALID,0.20377,VALID,19.07,VALID,56,VALID,0.657584,
2006-01-24, 03:11:00,VALID,915.775,VALID,0,VALID,100,VALID,0.20377,VALID,19.0835,VALID,44,VALID,0.622024,
2006-01-24, 03:12:00,VALID,915.776,VALID,0,VALID,100,VALID,0.186789,VALID,19.0735,VALID,60,VALID,0.799219,
2006-01-24, 03:13:00,VALID,915.771,VALID,0,VALID,100,VALID,0.186789,VALID,19.0668,VALID,72,VALID,0.751302,
2006-01-24, 03:14:00,VALID,915.772,VALID,0,VALID,100,VALID,0.20377,VALID,19.0671,VALID,77,VALID,0.346112,
2006-01-24, 03:15:00,VALID,915.767,VALID,0,VALID,100,VALID,0.220751,VALID,19.0534,VALID,77,VALID,0.678163,
2006-01-24, 03:16:00,VALID,915.763,VALID,0,VALID,100,VALID,0.220751,VALID,19.0633,VALID,88,VALID,0.68679,
2006-01-24, 03:17:00,VALID,915.748,VALID,0,VALID,100,VALID,0.20377,VALID,19.0571,VALID,84,VALID,0.348366,
2006-01-24, 03:18:00,VALID,915.737,VALID,0,VALID,100,VALID,0.169808,VALID,19.0768,VALID,79,VALID,0.403343,
2006-01-24, 03:19:00,VALID,915.727,VALID,0,VALID,100,VALID,0.220751,VALID,19.0666,VALID,81,VALID,0.35556,
2006-01-24, 03:20:00,VALID,915.718,VALID,0,VALID,100,VALID,0.169808,VALID,19.08,VALID,83,VALID,0.377951,
2006-01-24, 03:21:00,VALID,915.708,VALID,0,VALID,100,VALID,0.101885,VALID,19.0976,VALID,84,VALID,0.136242,
2006-01-24, 03:22:00,VALID,915.71,VALID,0,VALID,100,VALID,0.0509425,VALID,19.0939,VALID,85,VALID,0.173874,
2006-01-24, 03:23:00,VALID,915.697,VALID,0,VALID,100,VALID,0.101885,VALID,19.1008,VALID,85,VALID,0.138368,
2006-01-24, 03:24:00,VALID,915.69,VALID,0,VALID,100,VALID,0.0679233,VALID,19.1003,VALID,85,VALID,0.00744048,
2006-01-24, 03:25:00,VALID,915.688,VALID,0,VALID,100,VALID,0.0679233,VALID,19.1135,VALID,85,VALID,0.00106534,
2006-01-24, 03:26:00,VALID,915.684,VALID,0,VALID,100,VALID,0.0849042,VALID,19.1304,VALID,85,VALID,0,
2006-01-24, 03:27:00,VALID,915.699,VALID,0,VALID,100,VALID,0.0169808,VALID,19.1364,VALID,85,VALID,0,
2006-01-24, 03:28:00,VALID,915.694,VALID,0,VALID,100,VALID,0.0849042,VALID,19.1431,VALID,85,VALID,0,
2006-01-24, 03:29:00,VALID,915.676,VALID,0,VALID,100,VALID,0.0849042,VALID,19.1428,VALID,85,VALID,0.0513393,
2006-01-24, 03:30:00,VALID,915.675,VALID,0,VALID,100,VALID,0.101885,VALID,19.1496,VALID,85,VALID,0.000190549,
2006-01-24, 03:31:00,VALID,915.669,VALID,0,VALID,100,VALID,0.118866,VALID,19.1518,VALID,85,VALID,0.121354,
2006-01-24, 03:32:00,VALID,915.659,VALID,0,VALID,100,VALID,0.0849042,VALID,19.1625,VALID,85,VALID,0,
2006-01-24, 03:33:00,VALID,915.654,VALID,0,VALID,100,VALID,0.0509425,VALID,19.1717,VALID,85,VALID,0,
2006-01-24, 03:34:00,VALID,915.621,VALID,0,VALID,100,VALID,0.0679233,VALID,19.1787,VALID,85,VALID,0,
2006-01-24, 03:35:00,VALID,915.589,VALID,0,VALID,100,VALID,0.101885,VALID,19.1913,VALID,85,VALID,0,
2006-01-24, 03:36:00,VALID,915.577,VALID,0,VALID,100,VALID,0.135847,VALID,19.1976,VALID,85,VALID,0,
2006-01-24, 03:37:00,VALID,915.563,VALID,0,VALID,100,VALID,0.101885,VALID,19.2038,VALID,85,VALID,0,
2006-01-24, 03:38:00,VALID,915.546,VALID,0,VALID,100,VALID,0.152827,VALID,19.22,VALID,85,VALID,0,
2006-01-24, 03:39:00,VALID,915.523,VALID,0,VALID,100,VALID,0.152827,VALID,19.2197,VALID,85,VALID,0,
2006-01-24, 03:40:00,VALID,915.516,VALID,0,VALID,100,VALID,0.186789,VALID,19.2232,VALID,85,VALID,0,
2006-01-24, 03:41:00,VALID,915.499,VALID,0,VALID,100,VALID,0.135847,VALID,19.2162,VALID,93,VALID,0.234557,
2006-01-24, 03:42:00,VALID,915.478,VALID,0,VALID,100,VALID,0.135847,VALID,19.2232,VALID,101,VALID,0.358259,
2006-01-24, 03:43:00,VALID,915.475,VALID,0,VALID,100,VALID,0.135847,VALID,19.2031,VALID,101,VALID,0.188834,
2006-01-24, 03:44:00,VALID,915.468,VALID,0,VALID,100,VALID,0.152827,VALID,19.2073,VALID,101,VALID,0.217842,